Location: Fitch
(41.0906°N, 80.5448°W)
Time: 04:40:13
(UTC+00:00)

Daily predictions for brighter satellites

Satellite Brightness Start Highest point End
(mag) Time Altitude Azimuth Time Altitude Azimuth Time Altitude Azimuth
STARLINK-1031 4.1 00:00:46 10° WSW 00:04:44 56° NW 00:08:31 11° NE
Cosmos 1340 2.5 00:01:38 10° S 00:05:22 71° E 00:09:07 10° NNE
Cosmos 2242 Rocket 4.0 00:01:08 10° N 00:05:28 42° ENE 00:09:47 10° SSE
GPS 2-04 Rocket1 4.1 00:02:15 10° SW 00:05:51 28° SSE 00:08:20 16° ESE
CSL-04 Debris 4.2 00:01:15 10° SSE 00:06:42 89° ENE 00:12:13 10° NNW
CZ-4 R/B 2.2 00:02:46 10° S 00:06:54 58° W 00:11:02 10° NNW
COSMO-SKYMED 1 4.1 00:04:01 10° N 00:08:04 39° WNW 00:12:05 10° SW
Cosmos 1862 Rocket 3.4 00:04:30 10° N 00:08:51 81° E 00:13:11 10° S
STARLINK-1037 4.1 00:05:25 10° WSW 00:09:30 60° NW 00:13:08 13° NE
NOAA 11 4.4 00:05:43 10° S 00:11:09 76° WSW 00:16:36 10° NNW
STARLINK-1056 4.4 00:07:40 10° SSW 00:11:22 33° SE 00:13:13 22° E
Cosmos 405 4.4 00:08:58 10° NNE 00:11:15 20° ENE 00:11:15 20° ENE
Cosmos 724 4.2 00:06:26 10° NNW 00:12:12 65° NE 00:17:59 10° SE
STARLINK-1059 4.2 00:10:30 10° WSW 00:14:33 55° NNW 00:17:58 14° NE
COSMOS 2487 3.5 00:13:13 10° N 00:16:06 24° ENE 00:16:07 24° ENE
STARLINK-1054 4.3 00:12:32 10° SSW 00:16:19 36° SE 00:17:59 25° E
BREEZE-M DEB (TANK) 3.6 00:14:38 10° NW 00:17:29 51° NNE 00:21:28 20° E
Meteor 1-27 Rocket 4.1 00:12:46 10° NNW 00:18:17 66° W 00:23:52 10° S
Aureole 2 Rocket 4.4 00:16:22 10° WSW 00:18:29 21° WNW 00:20:37 10° N
Cosmos 1943 Rocket 3.3 00:13:28 10° SW 00:18:47 44° WNW 00:24:05 10° NNE
STARLINK-1057 4.3 00:15:31 10° WSW 00:19:33 51° NNW 00:22:46 15° NE
STARLINK-1062 4.1 00:17:25 10° SSW 00:21:17 39° SE 00:22:47 28° E
Gbstr 26 Del rocket 3.0 00:19:51 10° SW 00:23:46 58° SE 00:26:07 26° ENE
HJ-1C 3.2 00:20:50 10° SSE 00:24:06 66° ENE 00:27:23 10° N
STARLINK-1034 4.4 00:20:32 10° WSW 00:24:31 47° NNW 00:27:31 17° NE
NOSS 2-3 (C) 4.2 00:21:00 10° SW 00:25:13 57° NW 00:30:08 10° NNE
Okean 1-7 3.6 00:21:31 10° N 00:25:30 35° ENE 00:27:15 25° ESE
Cosmos 1703 Rocket 3.9 00:21:28 10° N 00:25:44 42° ENE 00:29:48 11° SSE
STARLINK-1053 4.0 00:22:18 10° SSW 00:26:14 43° SE 00:27:34 32° E
CZ-2C R/B 3.9 00:22:08 13° SE 00:26:39 36° ENE 00:31:49 10° N
STARLINK-1061 3.9 00:27:12 10° SSW 00:31:11 48° SE 00:32:20 37° E
Cosmos 1869 Rocket 4.1 00:27:59 10° SSE 00:31:59 35° E 00:35:59 10° NNE
Cosmos 1513 Rocket 4.4 00:29:29 10° S 00:35:26 61° E 00:41:28 10° NNE
STARLINK-1067 3.7 00:32:07 10° SSW 00:36:08 53° SE 00:37:07 42° E
Cosmos 44 Rocket 4.4 00:32:41 10° N 00:36:34 24° NE 00:36:43 24° NE
SJ 16-02 2.2 00:32:41 10° N 00:36:18 30° ENE 00:36:18 30° ENE
Cosmos 1602 4.0 00:33:24 10° SSE 00:37:06 44° E 00:37:20 43° E
SJ-6B 4.1 00:39:21 24° NNE 00:39:21 24° NNE 00:41:17 10° N
SPOT 3 Rocket 4.3 00:38:20 31° ENE 00:38:40 31° ENE 00:43:11 10° N
Cosmos 468 Rocket 4.1 00:33:37 10° S 00:38:43 52° ESE 00:43:52 10° NNE
STARLINK-1058 3.6 00:37:01 10° SW 00:41:04 59° SE 00:41:52 48° E
STARLINK-29 2.9 00:42:17 10° NW 00:45:41 80° NE 00:45:47 79° ENE
Meteor 1-19 Rocket 4.4 00:40:08 10° N 00:45:43 47° ENE 00:48:02 31° SE
Cosmos 1891 Rocket 4.4 00:39:51 10° S 00:45:59 76° E 00:52:17 10° N
STARLINK-1043 3.5 00:41:59 10° SW 00:46:04 65° SE 00:46:40 56° E
Meteor 2-4 Rocket 4.5 00:43:32 10° N 00:48:37 33° ENE 00:48:37 33° ENE
Meteor 1-25 Rocket 4.2 00:43:52 10° S 00:49:35 83° W 00:55:16 10° N
STARLINK-1065 3.5 00:46:52 10° SW 00:50:58 71° SE 00:51:23 64° E
Cosmos 1656 Rocket 4.0 00:45:39 10° SSW 00:51:07 65° WNW 00:56:41 10° NNE
Hubble Space Telescope 3.0 00:49:29 10° SSW 00:51:42 14° S 00:52:03 14° S
Cosmos 1898 Rocket 3.6 00:47:17 10° N 00:52:20 51° ENE 00:53:10 46° E
USA 267 3.9 00:55:17 32° SE 00:55:24 32° SE 01:01:08 10° S
STARLINK-1063 3.4 00:51:51 10° SW 00:55:58 78° SE 00:56:13 74° E
IRS-1A Rocket 4.2 00:52:27 10° SSE 00:57:59 81° WSW 01:03:31 10° NNW
STARLINK-52 3.4 00:54:40 10° NW 00:57:33 62° NW 00:57:33 62° NW
FALCON 9 DEB 3.5 00:55:08 10° WNW 00:58:24 62° WSW 00:58:24 62° WSW
STARLINK-1064 3.4 00:56:48 10° SW 01:00:56 85° SE 01:00:59 85° ESE
Cosmos 489 Rocket 4.5 00:58:47 10° SSW 01:05:09 86° WNW 01:11:31 10° NNE
Cosmos 1763 Rocket 3.3 01:00:18 10° S 01:05:28 74° ESE 01:08:17 28° NNE
STARLINK-1041 3.5 01:01:47 10° SW 01:05:46 83° WSW 01:05:46 83° WSW
Cosmos 2369 Rocket 4.3 01:01:25 10° WSW 01:06:04 26° NW 01:10:45 10° N
ADEOS Rocket 4.5 01:01:49 10° N 01:09:12 49° WNW 01:16:27 10° SW
STARLINK-1038 3.7 01:06:47 10° SW 01:10:34 72° W 01:10:34 72° W
Cosmos 1464 Rocket 4.2 01:05:05 10° SSW 01:11:25 71° W 01:17:48 10° N
Nadezhda 4 Rocket 3.9 01:08:37 10° N 01:14:57 76° E 01:17:52 34° SSE
STARLINK-1046 4.0 01:11:44 10° WSW 01:15:19 63° W 01:15:19 63° W
Ariane Rocket 4.1 01:15:18 10° S 01:20:09 44° W 01:25:02 10° NNW
STARLINK-1039 4.2 01:16:44 10° WSW 01:20:06 54° W 01:20:06 54° W
ARGOS 3.4 01:25:13 33° S 01:27:40 69° WSW 01:33:06 10° NNW
USA 234 4.4 01:28:32 27° NNE 01:29:25 28° NNE 01:34:48 10° NW
Cosmos 2034 Rocket 4.2 01:25:21 10° SSW 01:31:29 69° W 01:37:38 10° N
Lacrosse 5 rocket 4.0 01:30:32 10° NNW 01:31:54 13° N 01:31:54 13° N
H-2A R/B 2.9 01:30:57 15° S 01:35:09 50° W 01:40:27 10° NNW
Timation 2 Rocket 4.1 01:28:42 10° NNW 01:35:38 89° SW 01:36:43 67° SSE
Lacrosse 5 2.6 01:32:02 10° SW 01:35:37 46° SW 01:35:37 46° SW
Cosmos 990 Rocket 4.3 01:33:47 10° NNW 01:38:48 60° WSW 01:38:48 60° WSW
Resurs 01 Rocket 4.2 01:45:44 12° N 01:45:44 12° N 01:46:06 10° N
FALCON 9 R/B 4.4 01:34:39 10° W 01:46:53 25° SW 01:50:26 17° SSW
Cosmos 1937 Rocket 4.2 01:42:10 10° NNW 01:46:07 50° NW 01:46:07 50° NW
Cosmos 2297 Rocket 4.0 01:47:30 10° N 01:49:34 21° N 01:49:34 21° N
Cosmos 1092 Rocket 4.3 01:52:24 10° N 01:57:38 62° NNW 01:57:38 62° NNW
CENTAUR R/B 4.1 01:57:02 10° NNW 02:02:51 32° NNE 02:02:51 32° NNE
Cosmos 2227 Rocket 4.2 02:05:50 10° NNW 02:07:28 19° N 02:07:28 19° N
ATLAS 3B R/B 4.5 02:09:41 10° NNW 02:12:35 19° N 02:12:35 19° N
SJ 16-02 3.9 02:11:33 10° NW 02:13:20 18° WNW 02:13:20 18° WNW
USA 215 3.9 08:48:28 10° NE 08:53:10 47° NNE 08:53:10 47° NNE
CZ-2C R/B 3.9 09:00:23 10° NNE 09:04:39 35° E 09:04:39 35° E
MSX 4.4 09:17:00 10° NNE 09:21:10 50° NNE 09:21:10 50° NNE
Aureole 1 Rocket 4.5 09:22:20 68° SSW 09:23:37 85° WNW 09:32:18 10° NNE
Cosmos 1727 Rocket 4.1 09:24:09 61° SSE 09:25:07 72° E 09:31:16 10° NNE
USA 267 3.3 09:20:12 10° ESE 09:26:43 75° NE 09:28:17 54° NNW
ADEOS 4.1 09:24:21 10° NNE 09:28:16 52° NNE 09:28:16 52° NNE
Atlas Centaur 2 4.1 09:31:21 26° S 09:33:16 29° SSE 09:40:12 10° ESE
H-2A R/B 4.0 09:33:13 10° NNE 09:37:23 37° E 09:40:10 19° SSE
Cosmos 1656 Rocket 4.3 09:37:20 10° NNW 09:42:55 55° ENE 09:48:28 10° SE
Meteor 1-27 4.1 09:46:15 73° NW 09:46:15 73° NW 09:51:29 10° N
PAYLOAD A 4.2 09:43:42 10° N 09:47:47 58° NNW 09:47:47 58° NNW
Cosmos 2100 Rocket 4.3 09:44:04 10° N 09:50:13 65° E 09:56:18 10° SSE
SL-16 R/B 4.2 09:54:47 14° NNW 09:54:47 14° NNW 09:56:08 10° N
Cosmos 1023 Rocket 4.3 09:54:24 76° W 09:54:35 77° WNW 09:59:53 10° NNE
Cosmos 2369 Rocket 2.8 10:01:20 38° SSW 10:01:20 38° SSW 10:05:06 10° S
Cosmos 1400 Rocket 4.3 09:58:55 10° SSE 10:02:39 37° E 10:06:28 10° NNE
Cosmos 1805 Rocket 3.8 10:03:25 10° N 10:07:45 67° E 10:12:04 10° SSE
Cosmos 1943 3.4 10:08:07 47° WNW 10:08:17 47° WNW 10:13:44 10° NNE
Cosmos 1603 4.3 10:09:27 36° NW 10:09:27 36° NW 10:14:20 10° N
Cosmos 1633 2.7 10:10:36 67° SSE 10:10:36 67° SSE 10:13:49 10° S
Lacrosse 5 3.9 10:19:32 14° SSW 10:19:32 14° SSW 10:20:28 10° S
Cosmos 1140 Rocket 3.7 10:17:06 46° W 10:17:48 49° WNW 10:22:55 10° N
CZ-4B R/B 2.4 10:16:22 10° N 10:19:59 83° WNW 10:20:42 55° SSW
Cosmos 2061 Rocket 4.2 10:14:52 10° N 10:21:08 74° E 10:27:18 10° SSE
ISS -3.2 10:21:40 47° S 10:22:11 53° SE 10:25:29 10° ENE
Iridium 45 4.5 10:20:58 10° S 10:24:52 73° W 10:28:31 10° N
Cosmos 921 Rocket 3.9 10:26:35 31° SW 10:26:35 31° SW 10:29:14 10° S
Cosmos 2263 4.5 10:24:13 31° WNW 10:26:16 42° WSW 10:31:31 10° S
Meteor 2-2 Rocket 4.5 10:23:56 14° SSW 10:28:57 52° WNW 10:34:49 10° N
Cosmos 407 Rocket 4.4 10:31:28 28° WNW 10:31:28 28° WNW 10:36:00 10° N
Cosmos 1484 Rocket 2.7 10:27:49 10° N 10:31:49 73° WNW 10:35:48 10° SSW
Cosmos 1802 Rocket 4.0 10:26:07 10° N 10:32:34 79° W 10:38:56 10° S
Cosmos 1954 Rocket 4.1 10:29:40 25° SW 10:32:40 54° WNW 10:37:53 10° N
USA 215 4.4 10:31:48 10° NE 10:37:07 27° NNW 10:40:31 18° WNW
Cosmos 2221 4.4 10:41:02 14° NW 10:41:02 14° NW 10:42:06 10° NNW
Cosmos 1850 Rocket 4.2 10:36:31 10° S 10:41:48 74° ESE 10:47:04 10° NNE
Cosmos 967 Rocket 4.5 10:36:26 14° SW 10:41:56 67° NW 10:48:24 10° NNE
CZ-2C R/B 3.4 10:38:51 10° N 10:43:08 27° WNW 10:44:02 26° W
Cosmos 2016 Rocket 3.9 10:37:52 10° N 10:44:09 77° W 10:50:28 10° S
STARLINK-1132 4.1 10:43:19 20° NNW 10:44:48 34° NNE 10:47:30 10° E
STARLINK-1150 4.1 10:43:29 20° NNW 10:44:56 34° NNE 10:47:37 10° E
STARLINK-1167 4.1 10:44:23 20° NNW 10:45:53 34° NNE 10:48:35 10° E
STARLINK-1163 4.1 10:44:47 20° NNW 10:46:18 35° NNE 10:48:59 10° E
STARLINK-1153 4.3 10:44:57 18° NNW 10:46:33 31° NNE 10:49:13 10° E
STARLINK-1180 4.2 10:45:09 18° NNW 10:46:47 32° NNE 10:49:29 10° E
Cosmos 1862 3.2 10:42:58 10° NNW 10:46:55 65° W 10:50:50 10° S
STARLINK-1177 4.0 10:45:36 20° NNW 10:47:07 35° NNE 10:49:49 10° ESE
STARLINK-1174 4.2 10:45:36 18° NNW 10:47:14 32° NNE 10:49:55 10° E
STARLINK-1139 4.2 10:45:49 18° NNW 10:47:28 32° NNE 10:50:09 10° E
STARLINK-1133 4.2 10:46:02 18° NNW 10:47:41 32° NNE 10:50:22 10° E
STARLINK-1151 4.2 10:46:15 18° NNW 10:47:55 32° NNE 10:50:36 10° E
STARLINK-1173 4.0 10:46:26 20° NNW 10:48:00 36° NNE 10:50:43 10° ESE
STARLINK-1160 4.2 10:46:54 18° NNW 10:48:35 33° NNE 10:51:17 10° E
STARLINK-1161 4.2 10:47:07 18° NNW 10:48:49 33° NNE 10:51:30 10° E
STARLINK-1145 4.2 10:47:20 18° NNW 10:49:02 33° NNE 10:51:44 10° E
Meteor PRIRODA 3.8 10:45:31 10° N 10:49:03 47° WNW 10:52:34 10° SSW
STARLINK-1172 4.2 10:47:32 18° NNW 10:49:16 33° NNE 10:51:58 10° E
STARLINK-1182 4.1 10:47:59 18° NNW 10:49:43 33° NNE 10:52:25 10° E
STARLINK-1164 4.1 10:48:12 18° NNW 10:49:57 33° NNE 10:52:39 10° E
STARLINK-1168 4.1 10:48:25 17° NNW 10:50:10 34° NNE 10:52:53 10° E
DELTA 2 R/B (1) 3.6 10:47:06 23° W 10:50:36 78° S 10:56:10 10° E
STARLINK-1183 4.1 10:49:04 17° NNW 10:50:51 34° NNE 10:53:33 10° E
STARLINK-1181 4.1 10:49:17 17° NNW 10:51:05 34° NNE 10:53:47 10° E
Okean O Rocket 2.8 10:47:04 10° NNE 10:51:17 46° E 10:55:26 10° S
STARLINK-1136 3.9 10:49:37 19° NNW 10:51:19 38° NNE 10:54:02 10° ESE
STARLINK-1196 4.1 10:49:55 17° NNW 10:51:45 35° NNE 10:54:29 10° E
STARLINK-1156 4.5 10:49:20 14° NNW 10:51:52 35° NNE 10:55:05 10° E
STARLINK-1186 4.1 10:50:21 17° NNW 10:52:11 35° NNE 10:54:55 10° E
STARLINK-1185 4.1 10:50:34 17° NNW 10:52:25 35° NNE 10:55:08 10° E
STARLINK-1175 4.0 10:50:47 17° NNW 10:52:39 35° NNE 10:55:23 10° ESE
STARLINK-1147 4.0 10:51:00 17° NNW 10:52:52 35° NNE 10:55:36 10° ESE
STARLINK-1179 3.7 10:51:17 19° NNW 10:52:54 41° NE 10:55:35 10° ESE
STARLINK-1146 4.0 10:51:12 17° NNW 10:53:06 36° NNE 10:55:51 10° ESE
STARLINK-1152 4.0 10:51:26 17° NNW 10:53:20 36° NNE 10:56:05 10° ESE
STARLINK-1176 3.6 10:51:43 19° NNW 10:53:21 41° NNE 10:56:03 10° ESE
Cosmos 1606 3.9 10:49:45 10° SSE 10:53:23 46° E 10:57:01 10° NNE
STARLINK-1195 4.0 10:51:39 17° NNW 10:53:32 36° NNE 10:56:17 10° ESE
STARLINK-1137 4.0 10:51:52 17° NNW 10:53:46 36° NNE 10:56:31 10° ESE
STARLINK-1142 4.0 10:52:05 16° NNW 10:54:00 36° NNE 10:56:45 10° ESE
STARLINK-1127 4.0 10:52:18 16° NNW 10:54:13 36° NNE 10:56:59 10° ESE
STARLINK-1184 4.0 10:52:31 16° NNW 10:54:27 36° NNE 10:57:12 10° ESE
STARLINK-1193 4.0 10:52:44 16° NNW 10:54:41 37° NNE 10:57:26 10° ESE
STARLINK-1148 4.4 10:52:04 14° NW 10:54:44 37° NNE 10:57:58 10° E
STARLINK-1194 4.0 10:52:57 16° NNW 10:54:53 37° NNE 10:57:39 10° ESE
TELKOM 3 4.5 10:54:59 20° NNW 10:55:52 26° NNE 10:57:43 10° E
STARLINK-1158 4.3 10:54:47 13° NW 10:57:34 39° NNE 11:00:51 10° ESE
Cosmos 1346 Rocket 3.7 10:54:16 10° N 10:58:04 51° ENE 11:01:51 10° SSE
Cosmos 1633 Rocket 3.0 10:53:53 10° N 10:58:18 82° W 11:02:41 10° S
Cosmos 2233 Rocket 4.3 10:52:49 10° N 10:59:07 73° E 11:05:26 10° SSE
Meteor 1-31 Rocket 4.0 10:58:47 10° NNW 11:01:39 20° WNW 11:02:18 20° W
COSMO-SKYMED 1 2.7 10:58:23 10° S 11:02:36 50° W 11:06:51 10° NNW
PSLV R/B 4.0 11:00:15 10° N 11:03:54 46° WNW 11:07:36 10° SSW
Cosmos 1666 Rocket 3.6 11:01:24 10° NNW 11:05:43 54° W 11:09:58 10° S
Cosmos 468 Rocket 4.0 11:00:44 10° NNW 11:06:04 88° WSW 11:11:19 10° SSE
USA 267 4.1 11:04:28 10° S 11:10:04 30° SW 11:15:41 10° WNW
Cosmos 1741 Rocket 4.0 11:05:17 10° SSW 11:10:29 65° WNW 11:15:45 10° NNE
ERBS 2.9 11:07:25 10° SSW 11:10:44 58° SE 11:14:03 10° NE
H-2A R/B 3.9 11:09:12 10° NNW 11:12:37 22° WNW 11:16:02 10° WSW
STARLINK-1162 3.7 11:10:13 10° NW 11:13:34 53° NE 11:16:54 10° ESE
STARLINK-1157 3.6 11:12:46 10° NW 11:16:07 56° NE 11:19:28 10° ESE
Shenzhou-11 Module 1.5 11:14:51 17° WNW 11:16:42 88° SSW 11:19:20 10° ESE
STARLINK-1159 3.5 11:15:27 10° NW 11:18:49 59° NE 11:22:11 10° ESE
FENGYUN 3A 4.0 11:14:13 10° N 11:19:22 45° WNW 11:24:31 10° SW
STARLINK-1171 3.5 11:18:13 10° NW 11:21:36 63° NE 11:24:58 10° ESE
PAYLOAD B 4.2 11:16:12 10° N 11:21:44 67° WNW 11:27:12 10° SSW
ADEOS Rocket 3.4 11:15:23 10° SSE 11:21:46 87° ENE 11:28:57 10° NNW
Atlas Centaur 2 4.0 11:14:45 10° WSW 11:22:13 40° S 11:29:57 10° ESE
ALOS 2.9 11:18:40 10° N 11:22:53 34° WNW 11:27:04 10° SW
BREEZE M DEB (TANK) 4.4 11:19:54 10° NW 11:23:33 61° NNE 11:35:26 10° ESE
STARLINK-1155 3.4 11:20:50 10° NW 11:24:14 67° NE 11:27:37 10° ESE
Cosmos 1238 Rocket 4.4 11:20:53 10° NNW 11:25:16 25° W 11:29:03 10° SW
Helios 1A Rocket 3.3 11:21:07 10° NNE 11:25:16 72° ESE 11:29:21 10° S
H-2A R/B 3.3 11:21:53 10° NNE 11:25:34 62° E 11:29:13 10° S
SL-8 R/B 3.7 11:21:41 10° WSW 11:26:30 88° SSE 11:31:21 10° ENE
STARLINK-1166 3.3 11:23:35 10° NW 11:26:59 71° NE 11:30:23 10° ESE
Cosmos 1818 3.7 11:21:56 10° SSW 11:27:22 82° ESE 11:32:50 10° NE
Cosmos 841 Rocket 4.0 11:23:11 10° NNW 11:28:25 66° ENE 11:33:38 10° SSE
Cosmos 1933 3.4 11:25:20 10° SSW 11:29:22 61° W 11:33:26 10° N
STARLINK-1165 3.2 11:26:17 10° NW 11:29:42 75° NE 11:33:06 10° ESE
Meteor 1-25 Rocket 4.5 11:24:58 10° N 11:30:33 75° E 11:36:06 10° SSE
Cosmos 1763 Rocket 3.6 11:26:51 10° NNW 11:32:08 64° WSW 11:37:20 10° S
STARLINK-1169 3.2 11:28:59 10° NW 11:32:24 80° NE 11:35:49 10° SE
GEOS 3 Rocket 4.2 11:27:48 10° NNE 11:32:46 41° NW 11:37:45 10° WSW
Cosmos 1570 Rocket 4.1 11:28:09 10° NNW 11:33:31 86° WSW 11:38:52 10° SSE
STARLINK-1170 2.5 11:31:35 10° WNW 11:34:16 65° SW 11:36:56 10° SE
BREEZE-M DEB (TANK) 3.8 11:29:19 10° NW 11:34:18 41° NNE 11:38:02 10° E
Cosmos 1340 3.1 11:30:47 10° NNW 11:34:18 39° W 11:37:48 10° SSW
Sich 1 4.4 11:31:36 10° NW 11:34:31 18° W 11:37:27 10° SW
STARLINK-1178 3.1 11:31:41 10° NW 11:35:06 85° NE 11:38:31 10° SE
Cosmos 1315 Rocket 3.1 11:31:21 10° SSW 11:35:07 44° WNW 11:38:53 10° N
STARLINK-1120 3.1 11:34:19 10° NW 11:37:44 89° NE 11:41:08 10° SE
Cosmos 1400 Rocket 4.4 11:36:46 10° WSW 11:39:18 16° WNW 11:41:53 10° NNW
STARLINK-1131 3.1 11:37:03 10° NW 11:40:28 85° SW 11:43:53 10° SE
